To NAV CANADA Home Page Login to a new session Search on AWWS site Feedback and Comments Disclaimer Vers la page française équivalente Tips FAQ What's new on the site To the Forecasts and Observations / NOTAM section To "File a Flight Plan" website Publications and other links Update of the User's profile FIC Telephone Numbers My Weather Data Folder Route Weather Data Regional Weather Data Local Weather Data To the Forecasts and Observations / NOTAM section
Request Generated 04/27/2015 at 10:28:26 UTC . Weather information available at that time is displayed.

METAR/TAF

SANIKILUAQ/NU    

LWIS CYSK 271000Z AUTO 01009KT M03/M03 A3027=
LWIS CYSK 270900Z AUTO 01009KT M03/M03 A3026=
LWIS CYSK 270800Z AUTO 36008KT M02/M03 A3026=

CYSK - No TAF is issued for this station

Your time UTC time
Weather data provided by Environment Canada and NAV CANADA